Overview Statistics Trail Chart Weather Telemetry Raw packets
 

This is the latest recevied weather packets stored in our database for station/object OM6ACB-6. If no packets are shown the sender has not sent any weather packets the latest 10 day(s).

<< 24 25 26 27 28 29 30 >>
Time Temp. Humidity Pressure Rain* Wind** Luminosity Snow
1788292416 11.67° C 27% 1023.7 hPa 0 mm - - -
1788291815 12.78° C 26% 1023.7 hPa 0 mm - - -
1788291215 12.78° C 26% 1023.8 hPa 0 mm - - -
1788290615 12.78° C 26% 1023.9 hPa 0 mm - - -
1788290014 12.78° C 26% 1023.8 hPa 0 mm - - -
1788289414 13.33° C 26% 1023.7 hPa 0 mm - - -
1788288814 13.89° C 26% 1023.7 hPa 0 mm - - -
1788288213 13.89° C 26% 1023.6 hPa 0 mm - - -
1788287613 13.89° C 26% 1023.6 hPa 0 mm - - -
1788287013 15° C 25% 1023.6 hPa 0 mm - - -
1788286412 15.56° C 25% 1023.6 hPa 0 mm - - -
1788285812 15.56° C 25% 1023.4 hPa 0 mm - - -
1788285212 15.56° C 25% 1023.5 hPa 0 mm - - -
1788284612 17.22° C 24% 1023.7 hPa 0 mm - - -
1788284011 17.78° C 24% 1023.7 hPa 0 mm - - -
1788283411 18.33° C 23% 1023.8 hPa 0 mm - - -
1788282811 18.33° C 23% 1023.7 hPa 0 mm - - -
1788282211 18.33° C 23% 1023.8 hPa 0 mm - - -
1788281610 18.89° C 23% 1023.8 hPa 0 mm - - -
1788281010 20° C 23% 1023.9 hPa 0 mm - - -
1788280410 20.56° C 22% 1023.9 hPa 0 mm - - -
1788279809 21.11° C 22% 1023.9 hPa 0 mm - - -
1788279209 21.11° C 22% 1024 hPa 0 mm - - -
1788278609 22.78° C 21% 1024.3 hPa 0 mm - - -
1788278008 24.44° C 20% 1024.4 hPa 0 mm - - -

* Rain latest hour (hover to see other rain measurements)
** Current wind speed in m/s (hover to see current wind gust speed)